Tracking 18032 objects as of 25-March-2017
HD Live streaming from Space Station
objects crossing your sky now

VANGUARD R/B

Track VANGUARD R/B now!
10-day predictions


NORAD ID: 16
Int'l Code: 1958-002A
Perigee: 656.5 km
Apogee: 4,235.2 km
Inclination: 34.3 °
Period: 137.3 minutes
Semi major axis: 8816 km
RCS: 0.2285 m2 (medium)
Launch date: March 17, 1958
Source: United States (US)
Launch site: AIR FORCE EASTERN TEST RANGE (AFETR)

Note: This is a ROCKET BODY
Your satellite tracking list
Your tracking list is empty





NASA's NSSDC Master Catalog

Two Line Element Set (TLE):
1    16U 58002A   17083.30321020 -.00000086 +00000-0 -13472-3 0  9998
2    16 034.2790 324.9526 2029434 297.7492 043.1913 10.48653499334830
Source of the keplerian elements: AFSPC